Carnival Miracle — H3VS — position and weather

sailwx.info

Track history (hours):
 
Tides and Currents Weather Stations Pressure Air Temp Water Temp Dewpoint Dewpoint Depression Visibility Wind Speed Wind Dir Waves Ship Positions

Carnival Miracle

Operator: Carnival Cruise Lines

Last reported at 2017-Apr-29 13:00 UTC. Time now 2017-Apr-29 13:26 UTC.
Position N 33°38' W 118°10'.

Type: Ship. MMSI: 35437000.

Date/timePositionNaut miles runAvg speedWind from/ knotsBaromVisibWave heightAir tempDewpointWater temp
2017-Apr-29 13:00N 33°38' W 118°10'611.9
2017-Apr-29 12:30N 33°32' W 118°08'917.7
2017-Apr-29 12:00N 33°24' W 118°04'918.6
2017-Apr-29 11:30N 33°15' W 118°00'918.3
2017-Apr-29 11:01N 33°07' W 117°56'918.4
2017-Apr-29 10:31N 32°58' W 117°52'918.4
2017-Apr-29 10:01N 32°49' W 117°48'918.2
2017-Apr-29 09:31N 32°41' W 117°44'918.1
2017-Apr-29 09:01N 32°33' W 117°40'918.3
2017-Apr-29 08:31N 32°24' W 117°37'918.5
2017-Apr-29 08:01N 32°15' W 117°32'918.1
2017-Apr-29 07:30N 32°07' W 117°29'917.8
2017-Apr-29 07:00N 31°59' W 117°25'917.8
2017-Apr-29 06:30N 31°50' W 117°21'12216.2
2017-Apr-28 22:59N 29°56' W 116°29'53619.2
2017-Apr-27 19:00N 23°00' W 110°12'162 4.4 310 / 181012.010.8 20.016.919.0
2017-Apr-26 06:00N 21°36' W 107°42'   250 / 181015.0 23.020.125.0
2017-Apr-23 23:18N 27°04' W 114°41'620.6
2017-Apr-23 23:00N 27°08' W 114°46'1120.9
2017-Apr-23 22:30N 27°17' W 114°53'2921.0
2017-Apr-23 21:06N 27°40' W 115°13'319.9
2017-Apr-23 20:56N 27°43' W 115°16'16420.5
2017-Apr-23 12:55N 30°11' W 116°36'1021.1
2017-Apr-23 12:28N 30°20' W 116°40'1021.0
2017-Apr-23 12:00N 30°29' W 116°44'1420.9
2017-Apr-23 11:20N 30°42' W 116°50'721.0
2017-Apr-23 11:01N 30°48' W 116°53'1120.9
2017-Apr-23 10:30N 30°58' W 116°57'1121.2
2017-Apr-23 10:00N 31°08' W 117°02'1121.2
2017-Apr-23 09:30N 31°18' W 117°06'1120.9
2017-Apr-23 09:00N 31°28' W 117°11'1120.7
2017-Apr-23 08:29N 31°38' W 117°15'1020.6
2017-Apr-23 08:00N 31°47' W 117°19'1020.7
2017-Apr-23 07:31N 31°57' W 117°24'1020.5
2017-Apr-23 07:00N 32°06' W 117°28'1020.4
2017-Apr-23 06:30N 32°16' W 117°32'1020.6
2017-Apr-23 06:00N 32°25' W 117°37'1020.6
2017-Apr-23 05:31N 32°34' W 117°43'1020.2
2017-Apr-23 05:00N 32°44' W 117°46'1020.6
2017-Apr-23 04:31N 32°53' W 117°51'1020.7
2017-Apr-23 04:00N 33°03' W 117°56'1021.0
2017-Apr-23 03:31N 33°12' W 118°02'1020.8
2017-Apr-23 03:01N 33°21' W 118°07'1020.5
2017-Apr-23 02:30N 33°31' W 118°12'714.2
2017-Apr-23 02:00N 33°38' W 118°13'611.4
2017-Apr-23 01:30N 33°43' W 118°11'2 3.4
2017-Apr-23 01:00N 33°45' W 118°11'0 0.0
2017-Apr-23 00:30N 33°45' W 118°11'0 0.0
2017-Apr-23 00:00N 33°45' W 118°11'0 0.0
2017-Apr-22 23:30N 33°45' W 118°11'0 0.0
2017-Apr-22 23:00N 33°45' W 118°11'0 0.0
2017-Apr-22 22:29N 33°45' W 118°11'0 0.0
2017-Apr-22 21:56N 33°45' W 118°11'0 0.0
2017-Apr-22 21:29N 33°45' W 118°11'0 0.0
2017-Apr-22 20:59N 33°45' W 118°11'0 0.0
2017-Apr-22 20:29N 33°45' W 118°11'0 0.0
2017-Apr-22 19:58N 33°45' W 118°11'0 0.0
2017-Apr-22 19:28N 33°45' W 118°11'0 0.0
2017-Apr-22 18:58N 33°45' W 118°11'0 0.0
2017-Apr-22 18:28N 33°45' W 118°11'0 0.0
2017-Apr-22 18:00N 33°45' W 118°11'0 0.0
2017-Apr-22 17:30N 33°45' W 118°11'0 0.0
2017-Apr-22 16:57N 33°45' W 118°11'0 0.0
2017-Apr-22 16:30N 33°45' W 118°11'0 0.0
2017-Apr-22 16:00N 33°45' W 118°11'0 0.0
2017-Apr-22 15:29N 33°45' W 118°11'0 0.0
2017-Apr-22 14:59N 33°45' W 118°11'0 0.0
2017-Apr-22 14:29N 33°45' W 118°11'1 1.0
2017-Apr-22 13:30N 33°44' W 118°11'510.0
2017-Apr-22 13:00N 33°39' W 118°10'611.1
2017-Apr-22 12:30N 33°34' W 118°09'612.2
2017-Apr-22 12:01N 33°28' W 118°06'612.7
2017-Apr-22 11:30N 33°22' W 118°04'816.3
2017-Apr-22 11:00N 33°14' W 118°00'917.2
2017-Apr-22 10:30N 33°07' W 117°56'917.3
2017-Apr-22 10:00N 32°59' W 117°52'917.3
2017-Apr-22 09:30N 32°51' W 117°48'917.0
2017-Apr-22 09:00N 32°43' W 117°45'917.0
2017-Apr-22 08:30N 32°35' W 117°41'917.1
2017-Apr-22 08:00N 32°27' W 117°38'917.3
2017-Apr-22 07:30N 32°19' W 117°34'917.3
2017-Apr-22 07:00N 32°10' W 117°30'917.5
2017-Apr-22 06:30N 32°02' W 117°26'917.7
2017-Apr-22 06:00N 31°54' W 117°23'917.6
2017-Apr-22 05:30N 31°46' W 117°19'817.5
2017-Apr-22 05:00N 31°38' W 117°15'917.4
2017-Apr-22 04:30N 31°30' W 117°11'917.5
2017-Apr-22 04:00N 31°21' W 117°08'917.4
2017-Apr-22 03:30N 31°13' W 117°04'917.0
2017-Apr-22 03:00N 31°05' W 117°00'816.8
2017-Apr-22 02:31N 30°58' W 116°57'816.5
2017-Apr-22 02:00N 30°50' W 116°53'816.4
2017-Apr-22 01:31N 30°42' W 116°51'816.6
2017-Apr-22 01:00N 30°35' W 116°46'19217.5
2017-Apr-21 14:02N 27°41' W 115°14'3919.4
2017-Apr-21 12:00N 27°10' W 114°47'1019.5
2017-Apr-21 11:31N 27°02' W 114°40'1019.3
2017-Apr-21 11:00N 26°54' W 114°33'  
Track history (hours):
 
Tides and Currents Weather Stations Pressure Air Temp Water Temp Dewpoint Dewpoint Depression Visibility Wind Speed Wind Dir Waves Ship Positions

Carnival Miracle

Operator: Carnival Cruise Lines

Last reported at 2017-Apr-29 13:00 UTC. Time now 2017-Apr-29 13:26 UTC.
Position N 33°38' W 118°10'.

Type: Ship. MMSI: 35437000.

Date/timePositionNaut miles runAvg speedWind from/ knotsBaromVisibWave heightAir tempDewpointWater temp
2017-Apr-29 13:00N 33°38' W 118°10'611.9
2017-Apr-29 12:30N 33°32' W 118°08'917.7
2017-Apr-29 12:00N 33°24' W 118°04'918.6
2017-Apr-29 11:30N 33°15' W 118°00'918.3
2017-Apr-29 11:01N 33°07' W 117°56'918.4
2017-Apr-29 10:31N 32°58' W 117°52'918.4
2017-Apr-29 10:01N 32°49' W 117°48'918.2
2017-Apr-29 09:31N 32°41' W 117°44'918.1
2017-Apr-29 09:01N 32°33' W 117°40'918.3
2017-Apr-29 08:31N 32°24' W 117°37'918.5
2017-Apr-29 08:01N 32°15' W 117°32'918.1
2017-Apr-29 07:30N 32°07' W 117°29'917.8
2017-Apr-29 07:00N 31°59' W 117°25'917.8
2017-Apr-29 06:30N 31°50' W 117°21'12216.2
2017-Apr-28 22:59N 29°56' W 116°29'53619.2
2017-Apr-27 19:00N 23°00' W 110°12'162 4.4 310 / 181012.010.8 20.016.919.0
2017-Apr-26 06:00N 21°36' W 107°42'   250 / 181015.0 23.020.125.0
2017-Apr-23 23:18N 27°04' W 114°41'620.6
2017-Apr-23 23:00N 27°08' W 114°46'1120.9
2017-Apr-23 22:30N 27°17' W 114°53'2921.0
2017-Apr-23 21:06N 27°40' W 115°13'319.9
2017-Apr-23 20:56N 27°43' W 115°16'16420.5
2017-Apr-23 12:55N 30°11' W 116°36'1021.1
2017-Apr-23 12:28N 30°20' W 116°40'1021.0
2017-Apr-23 12:00N 30°29' W 116°44'1420.9
2017-Apr-23 11:20N 30°42' W 116°50'721.0
2017-Apr-23 11:01N 30°48' W 116°53'1120.9
2017-Apr-23 10:30N 30°58' W 116°57'1121.2
2017-Apr-23 10:00N 31°08' W 117°02'1121.2
2017-Apr-23 09:30N 31°18' W 117°06'1120.9
2017-Apr-23 09:00N 31°28' W 117°11'1120.7
2017-Apr-23 08:29N 31°38' W 117°15'1020.6
2017-Apr-23 08:00N 31°47' W 117°19'1020.7
2017-Apr-23 07:31N 31°57' W 117°24'1020.5
2017-Apr-23 07:00N 32°06' W 117°28'1020.4
2017-Apr-23 06:30N 32°16' W 117°32'1020.6
2017-Apr-23 06:00N 32°25' W 117°37'1020.6
2017-Apr-23 05:31N 32°34' W 117°43'1020.2
2017-Apr-23 05:00N 32°44' W 117°46'1020.6
2017-Apr-23 04:31N 32°53' W 117°51'1020.7
2017-Apr-23 04:00N 33°03' W 117°56'1021.0
2017-Apr-23 03:31N 33°12' W 118°02'1020.8
2017-Apr-23 03:01N 33°21' W 118°07'1020.5
2017-Apr-23 02:30N 33°31' W 118°12'714.2
2017-Apr-23 02:00N 33°38' W 118°13'611.4
2017-Apr-23 01:30N 33°43' W 118°11'2 3.4
2017-Apr-23 01:00N 33°45' W 118°11'0 0.0
2017-Apr-23 00:30N 33°45' W 118°11'0 0.0
2017-Apr-23 00:00N 33°45' W 118°11'0 0.0
2017-Apr-22 23:30N 33°45' W 118°11'0 0.0
2017-Apr-22 23:00N 33°45' W 118°11'0 0.0
2017-Apr-22 22:29N 33°45' W 118°11'0 0.0
2017-Apr-22 21:56N 33°45' W 118°11'0 0.0
2017-Apr-22 21:29N 33°45' W 118°11'0 0.0
2017-Apr-22 20:59N 33°45' W 118°11'0 0.0
2017-Apr-22 20:29N 33°45' W 118°11'0 0.0
2017-Apr-22 19:58N 33°45' W 118°11'0 0.0
2017-Apr-22 19:28N 33°45' W 118°11'0 0.0
2017-Apr-22 18:58N 33°45' W 118°11'0 0.0
2017-Apr-22 18:28N 33°45' W 118°11'0 0.0
2017-Apr-22 18:00N 33°45' W 118°11'0 0.0
2017-Apr-22 17:30N 33°45' W 118°11'0 0.0
2017-Apr-22 16:57N 33°45' W 118°11'0 0.0
2017-Apr-22 16:30N 33°45' W 118°11'0 0.0
2017-Apr-22 16:00N 33°45' W 118°11'0 0.0
2017-Apr-22 15:29N 33°45' W 118°11'0 0.0
2017-Apr-22 14:59N 33°45' W 118°11'0 0.0
2017-Apr-22 14:29N 33°45' W 118°11'1 1.0
2017-Apr-22 13:30N 33°44' W 118°11'510.0
2017-Apr-22 13:00N 33°39' W 118°10'611.1
2017-Apr-22 12:30N 33°34' W 118°09'612.2
2017-Apr-22 12:01N 33°28' W 118°06'612.7
2017-Apr-22 11:30N 33°22' W 118°04'816.3
2017-Apr-22 11:00N 33°14' W 118°00'917.2
2017-Apr-22 10:30N 33°07' W 117°56'917.3
2017-Apr-22 10:00N 32°59' W 117°52'917.3
2017-Apr-22 09:30N 32°51' W 117°48'917.0
2017-Apr-22 09:00N 32°43' W 117°45'917.0
2017-Apr-22 08:30N 32°35' W 117°41'917.1
2017-Apr-22 08:00N 32°27' W 117°38'917.3
2017-Apr-22 07:30N 32°19' W 117°34'917.3
2017-Apr-22 07:00N 32°10' W 117°30'917.5
2017-Apr-22 06:30N 32°02' W 117°26'917.7
2017-Apr-22 06:00N 31°54' W 117°23'917.6
2017-Apr-22 05:30N 31°46' W 117°19'817.5
2017-Apr-22 05:00N 31°38' W 117°15'917.4
2017-Apr-22 04:30N 31°30' W 117°11'917.5
2017-Apr-22 04:00N 31°21' W 117°08'917.4
2017-Apr-22 03:30N 31°13' W 117°04'917.0
2017-Apr-22 03:00N 31°05' W 117°00'816.8
2017-Apr-22 02:31N 30°58' W 116°57'816.5
2017-Apr-22 02:00N 30°50' W 116°53'816.4
2017-Apr-22 01:31N 30°42' W 116°51'816.6
2017-Apr-22 01:00N 30°35' W 116°46'19217.5
2017-Apr-21 14:02N 27°41' W 115°14'3919.4
2017-Apr-21 12:00N 27°10' W 114°47'1019.5
2017-Apr-21 11:31N 27°02' W 114°40'1019.3
2017-Apr-21 11:00N 26°54' W 114°33'  

Dump ship's entire track history